Weather in Osinovskaya

Russia / Tyumen Oblast     57°28′56″N   70°26′04″E
temp.,
°C
wind,
m/s
gust,
m/s
humid.,
%
clouds,
%
prec.,
mm/h
press.,
hPa
HPBL,
m
14 may, fri
fri1423:00+11ne396720 0.0 1025218
02:00+8ene22775 0.0 102626
05:00+8ese11785 0.0 102714
08:00+15s124923 0.0 1027458
11:00+20wsw233454 0.0 10261106
14:00+24sw443062 0.0 10241327
17:00+25sw4933100 0.0 10222098
20:00+21ssw5144644 0.0 1020436
15 may, sat
sat1523:00+20sw5155055 0.0 1019425
02:00+17wsw39635 0.0 1018217
05:00+16wsw39675 0.0 1018186
08:00+23w36455 0.0 1018360
11:00+28w593253 0.0 10172213
14:00+30w68225 0.0 10163128
17:00+30w472415 0.0 10143249
20:00+24wsw39395 0.0 1013193
16 may, sun
sun1623:00+17ene41176100 1.8 1016348
02:00+15ssw2388100 0.4 101450
05:00+15wnw268555 0.4 1015128
08:00+21wnw386194 0.0 1015472
11:00+27nw5103471 0.0 10152296
14:00+28nnw583398 0.0 10142889
17:00+17ne138562 4.4 1016133
20:00+18w117556 0.0 101611
17 may, mon
mon1723:00+16ssw228527 0.1 101621
02:00+15ssw399162 0.0 1015191
05:00+15sw28869 0.0 1015148
08:00+22w38487 0.0 1014290
11:00+29w510285 0.0 10132492
14:00+31wnw610205 0.0 10123665
17:00+31w511235 0.0 10104129
20:00+24w4143586 0.0 1009524
18 may, tue
tue1823:00+17n3770100 0.6 1011155
02:00+16wsw127572 0.1 101013
05:00+16wsw27748 0.1 1009132
08:00+21nw585436 0.0 1010820
11:00+24nw584158 0.0 10102322
14:00+20nnw3755100 0.1 1010606
17:00+16w4981100 2.9 1009476
20:00+14n4990100 16.8 1010642